Location: Bathurst
(33.4193°S, 149.5775°E)
Time: 23:43:51
(UTC+10:00)

Vanguard 3 - Pass Details

Date: 28 June 2021
Orbit: 508 x 3261 km, 33.4° (Epoch: 25 July)

Event Time Altitude Azimuth Distance (km) Brightness Sun altitude
Rises 17:36:12 0° 277° (W) 5,874 13.3 -7.0°
Reaches altitude 10° 17:39:32 10° 277° (W) 5,157 12.7 -7.6°
Maximum altitude 17:56:29 89° 6° (N) 3,186 10.1 -10.9°
Enters shadow 18:15:08 14° 92° (E) 5,676 10.8 -14.6°
